Location: Central Falls
(41.8900°N, 71.3929°W)
Time: 11:23:50
(UTC+00:00)

A-11 Canister half - Pass Details

Date: 04 December 2023
Orbit: 1526 x 1682 km, 47.3° (Epoch: 20 February)

Event Time Altitude Azimuth Distance (km) Brightness Sun altitude
Rises 04:54:46 0° 292° (WNW) 4,917 - -69.9°
Reaches altitude 10° 04:57:57 10° 293° (WNW) 3,915 - -69.8°
Maximum altitude 05:08:02 83° 22° (NNE) 1,639 - -69.2°
Drops below altitude 10° 05:17:45 10° 112° (ESE) 3,788 - -68.4°
Sets 05:20:47 0° 113° (ESE) 4,751 - -68.1°
